Hourly Data Report for October 04, 2017

All times are specified in Local Standard Time (LST). Add 1 hour to adjust for Daylight Saving Time where and when it is observed.

TADOULE LAKE
MANITOBA

58°42'22.000" N
98°30'44.000" W
281.30 m
5062835
71272
YBQ

Download Data

Hourly Data (October 2017)
Hourly Data Report for October 4, 2017
Temp Definition
°C
Dew Point Temp Definition
°C
Rel Hum Definition
%
Wind Dir Definition
10's deg

Wind Spd Definition
km/h
Visibility Definition
km
Stn Press Definition
kPa
Hmdx Definition


Wind Chill Definition


Weather Definition


TIME
00:00 Legend Double Dagger 5.1 2.6 84 27 17 16.1 97.30     Rain
01:00 Legend Double Dagger 4.6 3.1 90 26 17 16.1 97.22     Rain
02:00 Legend Double Dagger 3.9 3.2 95 28 11 16.1 97.16     Rain
03:00 Legend Double Dagger 4.0 3.4 96 28 9 16.1 97.14     Rain
04:00 Legend Double Dagger 4.0 3.4 96 31 17 16.1 97.16     Rain
05:00 Legend Double Dagger 3.8 3.5 98 32 13 16.1 97.22     LegendNANA
06:00 Legend Double Dagger 1.2 0.9 98 35 24 8.1 97.37     Rain,Fog
07:00 Legend Double Dagger 0.0 -0.7 95 36 24 16.1 97.55   -6 Snow
08:00 Legend Double Dagger -0.7 -2.6 87 36 24 16.1 97.72   -7 Snow
09:00 Legend Double Dagger -1.9 -3.9 86 35 21 16.1 97.86   -8 LegendNANA
10:00 Legend Double Dagger -1.8 -4.3 83 1 28 16.1 97.95   -9 LegendNANA
11:00 Legend Double Dagger -0.9 -4.6 76 33 28 16.1 97.99   -7 LegendNANA
12:00 Legend Double Dagger -0.4 -4.0 77 33 24 16.1 98.04   -6 LegendNANA
13:00 Legend Double Dagger -0.2 -5.0 70 32 17 16.1 98.06   -5 LegendNANA
14:00 Legend Double Dagger -0.6 -3.4 81 32 21 9.7 98.09   -6 Snow
15:00 Legend Double Dagger 0.3 -5.1 67 33 21 16.1 98.13     LegendNANA
16:00 Legend Double Dagger 0.1 -4.4 72 33 17 16.1 98.15     LegendNANA
17:00 Legend Double Dagger 0.0 -4.8 70 31 21 16.1 98.14   -5 LegendNANA
18:00 Legend Double Dagger -0.2 -4.7 72 31 15 16.1 98.12   -5 LegendNANA
19:00 Legend Double Dagger 0.1 -4.5 72 31 15 16.1 98.11     LegendNANA
20:00 Legend Double Dagger -0.1 -4.8 71 30 17 16.1 98.09   -5 LegendNANA
21:00 Legend Double Dagger 0.1 -5.0 69 29 28 16.1 98.03     LegendNANA
22:00 Legend Double Dagger -0.1 -5.0 70 31 18 16.1 98.01   -5 LegendNANA
23:00 Legend Double Dagger -0.2 -5.9 66 31 24 16.1 97.97   -6 LegendNANA

Notes on Data Quality.

Legend

  • E = Estimated
  • M = Missing
  • NA = Not Available
  • ‡ = Partner data that is not subject to review by the National Climate Archives
Date modified: